Location: Newark
(48.6461°N, 4.3644°W)
Time: 12:12:16
(UTC+00:00)

S-56A Canister/Altair - Pass Details

Date: 27 January 2020
Orbit: 633 x 2499 km, 38.9° (Epoch: 19 February)

Event Time Altitude Azimuth Distance (km) Brightness Sun altitude
Rises 19:32:11 0° 225° (SW) 4,455 12.1 -23.9°
Reaches altitude 10° 19:36:17 10° 212° (SSW) 3,130 11.0 -24.6°
Maximum altitude 19:41:40 22° 164° (SSE) 1,940 9.4 -25.5°
Enters shadow 19:41:55 22° 161° (SSE) 1,926 9.3 -25.5°
Drops below altitude 10° 19:45:54 10° 114° (ESE) 2,375 - -26.2°
Sets 19:48:31 0° 99° (E) 3,143 - -26.6°
